Regional Weather Roundup
Issued by NWS

Home | Current Version | Previous Version | Graphics & Text | Print | Product List | Glossary On
Versions: 1 2 3 4 5 6 7 8 9 10 11 12 13 14 15 16 17 18 19 20 21 22 23 24 25 26 27 28 29 30 31 32 33 34 35 36 37 38 39 40 41 42 43 44 45 46 47 48 49 50
000
ASUS43 KBIS 261910
RWRND
NORTH DAKOTA REGIONAL WEATHER ROUNDUP
NATIONAL WEATHER SERVICE EASTERN NORTH DAKOTA/GRAND FORKS ND
200 PM CDT MON JUN 26 2017

  NOTE: "FAIR" INDICATES FEW OR NO CLOUDS BELOW 12,000 FEET WITH NO
  SIGNIFICANT WEATHER AND/OR OBSTRUCTIONS TO VISIBILITY.

NDZ001>003-009>011-017-262000-
...NORTHWEST NORTH DAKOTA...

CITY           SKY/WX    TMP DP  RH WIND       PRES   REMARKS
WILLISTON      FAIR      79  44  28 SE14G21   30.10F
MINOT          FAIR      72  39  30 S6        30.16F
MINOT AFB      FAIR      71  40  32 S6        30.15F
$$

NDZ018>021-031>035-040>046-262000-
...SOUTHWEST NORTH DAKOTA...

CITY           SKY/WX    TMP DP  RH WIND       PRES   REMARKS
BISMARCK       FAIR      73  44  35 SE8       30.19F
DICKINSON      FAIR      74  37  26 S10G21    30.13F
GARRISON         N/A     69  42  37 S8        30.17F
HETTINGER      FAIR      75  39  27 MISG      30.18F
$$

NDZ004>008-012>016-024-026-027-054-262000-
...NORTHEAST NORTH DAKOTA...

CITY           SKY/WX    TMP DP  RH WIND       PRES   REMARKS
GRAND FORKS    FAIR      70  39  32 NW13      30.16F
GRAND FORKS AF FAIR      71  39  31 NW6       30.17F
DEVILS LAKE    FAIR      66  38  35 VRB6      30.21F
$$

NDZ022-023-025-028>030-036>039-047>053-262000-
...SOUTHEAST NORTH DAKOTA...

CITY           SKY/WX    TMP DP  RH WIND       PRES   REMARKS
JAMESTOWN      PTSUNNY   68  39  34 VRB3      30.20F
FARGO          FAIR      71  38  29 NW8       30.18F
WAHPETON       FAIR      68  36  30 W3        30.20F
$$



USA.gov is the U.S. government's official web portal to all federal, state and local government web resources and services.